<?xml version="1.0" encoding="UTF-8" standalone="no" ?>
<gpx xmlns="http://www.topografix.com/GPX/1/1" xmlns:xsi="http://www.w3.org/2001/XMLSchema-instance" xsi:schemaLocation="http://www.topografix.com/GPX/1/1 http://www.topografix.com/GPX/1/1/gpx.xsd" version="1.1" creator="VisuGPX - https://www.visugpx.com">
  <metadata>
    <name>spectacle_ cretes_la_ciotat</name>
    <desc><![CDATA[cretes de la ciotat au depart du vieux port.]]></desc>
  </metadata>
  <trk>
    <name><![CDATA[spectacle la ciotat-16049368]]></name>
    <extensions>
      <line xmlns="http://www.topografix.com/GPX/gpx_style/0/2">
        <color>0000FF</color>
        <width>4</width>
      </line>
    </extensions>
    <trkseg>
      <trkpt lat="43.17136" lon="5.60566">
        <ele>9</ele>
        <time>2023-01-12T14:29:37Z</time>
      </trkpt>
      <trkpt lat="43.17149" lon="5.60547">
        <ele>9</ele>
        <time>2023-01-12T14:29:52Z</time>
      </trkpt>
      <trkpt lat="43.17143" lon="5.60538">
        <ele>9</ele>
        <time>2023-01-12T14:29:59Z</time>
      </trkpt>
      <trkpt lat="43.17124" lon="5.60565">
        <ele>10</ele>
        <time>2023-01-12T14:30:21Z</time>
      </trkpt>
      <trkpt lat="43.17115" lon="5.60582">
        <ele>11</ele>
        <time>2023-01-12T14:30:34Z</time>
      </trkpt>
      <trkpt lat="43.17105" lon="5.60583">
        <ele>11</ele>
        <time>2023-01-12T14:30:42Z</time>
      </trkpt>
      <trkpt lat="43.17098" lon="5.60582">
        <ele>12</ele>
        <time>2023-01-12T14:30:47Z</time>
      </trkpt>
      <trkpt lat="43.17084" lon="5.60574">
        <ele>13</ele>
        <time>2023-01-12T14:30:59Z</time>
      </trkpt>
      <trkpt lat="43.17084" lon="5.60568">
        <ele>13</ele>
        <time>2023-01-12T14:31:03Z</time>
      </trkpt>
      <trkpt lat="43.17074" lon="5.60537">
        <ele>13</ele>
        <time>2023-01-12T14:31:23Z</time>
      </trkpt>
      <trkpt lat="43.17068" lon="5.60521">
        <ele>14</ele>
        <time>2023-01-12T14:31:33Z</time>
      </trkpt>
      <trkpt lat="43.17041" lon="5.60535">
        <ele>13</ele>
        <time>2023-01-12T14:31:56Z</time>
      </trkpt>
      <trkpt lat="43.17034" lon="5.605">
        <ele>13</ele>
        <time>2023-01-12T14:32:17Z</time>
      </trkpt>
      <trkpt lat="43.17025" lon="5.60434">
        <ele>12</ele>
        <time>2023-01-12T14:32:57Z</time>
      </trkpt>
      <trkpt lat="43.17026" lon="5.60426">
        <ele>12</ele>
        <time>2023-01-12T14:33:01Z</time>
      </trkpt>
      <trkpt lat="43.17011" lon="5.60415">
        <ele>11</ele>
        <time>2023-01-12T14:33:15Z</time>
      </trkpt>
      <trkpt lat="43.16927" lon="5.60354">
        <ele>16</ele>
        <time>2023-01-12T14:34:31Z</time>
      </trkpt>
      <trkpt lat="43.16939" lon="5.60334">
        <ele>17</ele>
        <time>2023-01-12T14:34:46Z</time>
      </trkpt>
      <trkpt lat="43.16927" lon="5.60354">
        <ele>16</ele>
        <time>2023-01-12T14:35:01Z</time>
      </trkpt>
      <trkpt lat="43.1687" lon="5.60461">
        <ele>16</ele>
        <time>2023-01-12T14:36:19Z</time>
      </trkpt>
      <trkpt lat="43.16835" lon="5.60548">
        <ele>13</ele>
        <time>2023-01-12T14:37:17Z</time>
      </trkpt>
      <trkpt lat="43.16826" lon="5.60561">
        <ele>13</ele>
        <time>2023-01-12T14:37:27Z</time>
      </trkpt>
      <trkpt lat="43.16819" lon="5.60568">
        <ele>14</ele>
        <time>2023-01-12T14:37:34Z</time>
      </trkpt>
      <trkpt lat="43.16805" lon="5.60571">
        <ele>15</ele>
        <time>2023-01-12T14:37:45Z</time>
      </trkpt>
      <trkpt lat="43.16774" lon="5.60575">
        <ele>18</ele>
        <time>2023-01-12T14:38:10Z</time>
      </trkpt>
      <trkpt lat="43.16761" lon="5.60571">
        <ele>19</ele>
        <time>2023-01-12T14:38:21Z</time>
      </trkpt>
      <trkpt lat="43.16715" lon="5.6055">
        <ele>18</ele>
        <time>2023-01-12T14:39:00Z</time>
      </trkpt>
      <trkpt lat="43.16706" lon="5.60545">
        <ele>17</ele>
        <time>2023-01-12T14:39:08Z</time>
      </trkpt>
      <trkpt lat="43.16703" lon="5.6055">
        <ele>17</ele>
        <time>2023-01-12T14:39:11Z</time>
      </trkpt>
      <trkpt lat="43.16681" lon="5.60616">
        <ele>12</ele>
        <time>2023-01-12T14:39:54Z</time>
      </trkpt>
      <trkpt lat="43.16677" lon="5.6062">
        <ele>12</ele>
        <time>2023-01-12T14:39:58Z</time>
      </trkpt>
      <trkpt lat="43.16672" lon="5.60619">
        <ele>11</ele>
        <time>2023-01-12T14:40:02Z</time>
      </trkpt>
      <trkpt lat="43.16663" lon="5.60606">
        <ele>12</ele>
        <time>2023-01-12T14:40:12Z</time>
      </trkpt>
      <trkpt lat="43.16656" lon="5.60595">
        <ele>12</ele>
        <time>2023-01-12T14:40:21Z</time>
      </trkpt>
      <trkpt lat="43.16616" lon="5.6057">
        <ele>14</ele>
        <time>2023-01-12T14:40:56Z</time>
      </trkpt>
      <trkpt lat="43.16592" lon="5.60565">
        <ele>15</ele>
        <time>2023-01-12T14:41:15Z</time>
      </trkpt>
      <trkpt lat="43.16589" lon="5.60565">
        <ele>15</ele>
        <time>2023-01-12T14:41:18Z</time>
      </trkpt>
      <trkpt lat="43.16575" lon="5.60576">
        <ele>14</ele>
        <time>2023-01-12T14:41:31Z</time>
      </trkpt>
      <trkpt lat="43.1657" lon="5.60584">
        <ele>13</ele>
        <time>2023-01-12T14:41:37Z</time>
      </trkpt>
      <trkpt lat="43.16554" lon="5.60598">
        <ele>12</ele>
        <time>2023-01-12T14:41:52Z</time>
      </trkpt>
      <trkpt lat="43.16547" lon="5.60609">
        <ele>11</ele>
        <time>2023-01-12T14:42:01Z</time>
      </trkpt>
      <trkpt lat="43.16539" lon="5.60617">
        <ele>10</ele>
        <time>2023-01-12T14:42:09Z</time>
      </trkpt>
      <trkpt lat="43.16536" lon="5.60611">
        <ele>11</ele>
        <time>2023-01-12T14:42:13Z</time>
      </trkpt>
      <trkpt lat="43.1653" lon="5.60603">
        <ele>11</ele>
        <time>2023-01-12T14:42:20Z</time>
      </trkpt>
      <trkpt lat="43.16525" lon="5.60597">
        <ele>12</ele>
        <time>2023-01-12T14:42:25Z</time>
      </trkpt>
      <trkpt lat="43.16516" lon="5.60581">
        <ele>13</ele>
        <time>2023-01-12T14:42:37Z</time>
      </trkpt>
      <trkpt lat="43.1647" lon="5.60597">
        <ele>15</ele>
        <time>2023-01-12T14:43:15Z</time>
      </trkpt>
      <trkpt lat="43.16468" lon="5.60585">
        <ele>16</ele>
        <time>2023-01-12T14:43:22Z</time>
      </trkpt>
      <trkpt lat="43.16463" lon="5.60542">
        <ele>19</ele>
        <time>2023-01-12T14:43:47Z</time>
      </trkpt>
      <trkpt lat="43.16441" lon="5.60489">
        <ele>24</ele>
        <time>2023-01-12T14:44:23Z</time>
      </trkpt>
      <trkpt lat="43.16435" lon="5.60467">
        <ele>25</ele>
        <time>2023-01-12T14:44:37Z</time>
      </trkpt>
      <trkpt lat="43.16436" lon="5.60457">
        <ele>25</ele>
        <time>2023-01-12T14:44:43Z</time>
      </trkpt>
      <trkpt lat="43.16384" lon="5.60446">
        <ele>29</ele>
        <time>2023-01-12T14:45:25Z</time>
      </trkpt>
      <trkpt lat="43.16341" lon="5.60442">
        <ele>34</ele>
        <time>2023-01-12T14:45:59Z</time>
      </trkpt>
      <trkpt lat="43.16328" lon="5.60422">
        <ele>38</ele>
        <time>2023-01-12T14:46:15Z</time>
      </trkpt>
      <trkpt lat="43.16321" lon="5.60406">
        <ele>43</ele>
        <time>2023-01-12T14:46:26Z</time>
      </trkpt>
      <trkpt lat="43.16328" lon="5.60422">
        <ele>38</ele>
        <time>2023-01-12T14:46:37Z</time>
      </trkpt>
      <trkpt lat="43.16341" lon="5.60442">
        <ele>34</ele>
        <time>2023-01-12T14:46:52Z</time>
      </trkpt>
      <trkpt lat="43.16384" lon="5.60446">
        <ele>29</ele>
        <time>2023-01-12T14:47:27Z</time>
      </trkpt>
      <trkpt lat="43.16436" lon="5.60457">
        <ele>25</ele>
        <time>2023-01-12T14:48:09Z</time>
      </trkpt>
      <trkpt lat="43.16435" lon="5.60467">
        <ele>25</ele>
        <time>2023-01-12T14:48:15Z</time>
      </trkpt>
      <trkpt lat="43.16441" lon="5.60489">
        <ele>24</ele>
        <time>2023-01-12T14:48:28Z</time>
      </trkpt>
      <trkpt lat="43.16463" lon="5.60542">
        <ele>19</ele>
        <time>2023-01-12T14:49:04Z</time>
      </trkpt>
      <trkpt lat="43.16465" lon="5.60557">
        <ele>18</ele>
        <time>2023-01-12T14:49:13Z</time>
      </trkpt>
      <trkpt lat="43.16467" lon="5.60556">
        <ele>18</ele>
        <time>2023-01-12T14:49:15Z</time>
      </trkpt>
      <trkpt lat="43.16469" lon="5.60555">
        <ele>18</ele>
        <time>2023-01-12T14:49:16Z</time>
      </trkpt>
      <trkpt lat="43.16478" lon="5.60547">
        <ele>18</ele>
        <time>2023-01-12T14:49:25Z</time>
      </trkpt>
      <trkpt lat="43.16491" lon="5.60547">
        <ele>17</ele>
        <time>2023-01-12T14:49:35Z</time>
      </trkpt>
      <trkpt lat="43.16495" lon="5.60541">
        <ele>17</ele>
        <time>2023-01-12T14:49:40Z</time>
      </trkpt>
      <trkpt lat="43.16502" lon="5.60537">
        <ele>17</ele>
        <time>2023-01-12T14:49:46Z</time>
      </trkpt>
      <trkpt lat="43.16516" lon="5.60581">
        <ele>13</ele>
        <time>2023-01-12T14:50:14Z</time>
      </trkpt>
      <trkpt lat="43.16525" lon="5.60597">
        <ele>12</ele>
        <time>2023-01-12T14:50:26Z</time>
      </trkpt>
      <trkpt lat="43.1653" lon="5.60603">
        <ele>11</ele>
        <time>2023-01-12T14:50:31Z</time>
      </trkpt>
      <trkpt lat="43.16536" lon="5.60611">
        <ele>11</ele>
        <time>2023-01-12T14:50:38Z</time>
      </trkpt>
      <trkpt lat="43.16539" lon="5.60617">
        <ele>10</ele>
        <time>2023-01-12T14:50:42Z</time>
      </trkpt>
      <trkpt lat="43.16547" lon="5.60609">
        <ele>11</ele>
        <time>2023-01-12T14:50:50Z</time>
      </trkpt>
      <trkpt lat="43.16554" lon="5.60598">
        <ele>12</ele>
        <time>2023-01-12T14:50:59Z</time>
      </trkpt>
      <trkpt lat="43.1657" lon="5.60584">
        <ele>13</ele>
        <time>2023-01-12T14:51:14Z</time>
      </trkpt>
      <trkpt lat="43.16575" lon="5.60576">
        <ele>14</ele>
        <time>2023-01-12T14:51:20Z</time>
      </trkpt>
      <trkpt lat="43.16589" lon="5.60565">
        <ele>15</ele>
        <time>2023-01-12T14:51:33Z</time>
      </trkpt>
      <trkpt lat="43.16601" lon="5.60566">
        <ele>15</ele>
        <time>2023-01-12T14:51:43Z</time>
      </trkpt>
      <trkpt lat="43.16616" lon="5.6057">
        <ele>14</ele>
        <time>2023-01-12T14:51:55Z</time>
      </trkpt>
      <trkpt lat="43.16646" lon="5.60588">
        <ele>13</ele>
        <time>2023-01-12T14:52:21Z</time>
      </trkpt>
      <trkpt lat="43.16656" lon="5.60595">
        <ele>12</ele>
        <time>2023-01-12T14:52:30Z</time>
      </trkpt>
      <trkpt lat="43.16672" lon="5.60619">
        <ele>11</ele>
        <time>2023-01-12T14:52:49Z</time>
      </trkpt>
      <trkpt lat="43.16677" lon="5.6062">
        <ele>12</ele>
        <time>2023-01-12T14:52:53Z</time>
      </trkpt>
      <trkpt lat="43.16681" lon="5.60616">
        <ele>12</ele>
        <time>2023-01-12T14:52:57Z</time>
      </trkpt>
      <trkpt lat="43.16703" lon="5.6055">
        <ele>17</ele>
        <time>2023-01-12T14:53:40Z</time>
      </trkpt>
      <trkpt lat="43.16706" lon="5.60545">
        <ele>17</ele>
        <time>2023-01-12T14:53:43Z</time>
      </trkpt>
      <trkpt lat="43.16714" lon="5.60519">
        <ele>19</ele>
        <time>2023-01-12T14:54:00Z</time>
      </trkpt>
      <trkpt lat="43.16749" lon="5.60397">
        <ele>26</ele>
        <time>2023-01-12T14:55:16Z</time>
      </trkpt>
      <trkpt lat="43.16778" lon="5.60271">
        <ele>25</ele>
        <time>2023-01-12T14:56:33Z</time>
      </trkpt>
      <trkpt lat="43.16803" lon="5.60175">
        <ele>29</ele>
        <time>2023-01-12T14:57:33Z</time>
      </trkpt>
      <trkpt lat="43.16805" lon="5.60137">
        <ele>30</ele>
        <time>2023-01-12T14:57:55Z</time>
      </trkpt>
      <trkpt lat="43.16807" lon="5.60123">
        <ele>30</ele>
        <time>2023-01-12T14:58:04Z</time>
      </trkpt>
      <trkpt lat="43.16818" lon="5.60093">
        <ele>32</ele>
        <time>2023-01-12T14:58:23Z</time>
      </trkpt>
      <trkpt lat="43.1683" lon="5.6007">
        <ele>33</ele>
        <time>2023-01-12T14:58:40Z</time>
      </trkpt>
      <trkpt lat="43.16836" lon="5.60052">
        <ele>34</ele>
        <time>2023-01-12T14:58:51Z</time>
      </trkpt>
      <trkpt lat="43.16861" lon="5.59953">
        <ele>39</ele>
        <time>2023-01-12T14:59:52Z</time>
      </trkpt>
      <trkpt lat="43.16865" lon="5.59934">
        <ele>40</ele>
        <time>2023-01-12T15:00:04Z</time>
      </trkpt>
      <trkpt lat="43.16919" lon="5.59986">
        <ele>39</ele>
        <time>2023-01-12T15:00:57Z</time>
      </trkpt>
      <trkpt lat="43.16922" lon="5.59986">
        <ele>38</ele>
        <time>2023-01-12T15:00:59Z</time>
      </trkpt>
      <trkpt lat="43.16942" lon="5.60004">
        <ele>37</ele>
        <time>2023-01-12T15:01:18Z</time>
      </trkpt>
      <trkpt lat="43.16945" lon="5.60007">
        <ele>36</ele>
        <time>2023-01-12T15:01:21Z</time>
      </trkpt>
      <trkpt lat="43.16948" lon="5.60014">
        <ele>36</ele>
        <time>2023-01-12T15:01:26Z</time>
      </trkpt>
      <trkpt lat="43.16952" lon="5.60001">
        <ele>36</ele>
        <time>2023-01-12T15:01:34Z</time>
      </trkpt>
      <trkpt lat="43.16954" lon="5.59978">
        <ele>38</ele>
        <time>2023-01-12T15:01:48Z</time>
      </trkpt>
      <trkpt lat="43.16961" lon="5.59845">
        <ele>46</ele>
        <time>2023-01-12T15:03:06Z</time>
      </trkpt>
      <trkpt lat="43.16965" lon="5.59685">
        <ele>57</ele>
        <time>2023-01-12T15:04:39Z</time>
      </trkpt>
      <trkpt lat="43.16968" lon="5.59603">
        <ele>57</ele>
        <time>2023-01-12T15:05:27Z</time>
      </trkpt>
      <trkpt lat="43.1697" lon="5.5959">
        <ele>57</ele>
        <time>2023-01-12T15:05:35Z</time>
      </trkpt>
      <trkpt lat="43.16959" lon="5.59595">
        <ele>56</ele>
        <time>2023-01-12T15:05:44Z</time>
      </trkpt>
      <trkpt lat="43.1697" lon="5.5959">
        <ele>57</ele>
        <time>2023-01-12T15:05:53Z</time>
      </trkpt>
      <trkpt lat="43.1699" lon="5.59543">
        <ele>59</ele>
        <time>2023-01-12T15:06:25Z</time>
      </trkpt>
      <trkpt lat="43.16993" lon="5.5953">
        <ele>59</ele>
        <time>2023-01-12T15:06:33Z</time>
      </trkpt>
      <trkpt lat="43.16992" lon="5.59466">
        <ele>59</ele>
        <time>2023-01-12T15:07:11Z</time>
      </trkpt>
      <trkpt lat="43.17006" lon="5.59416">
        <ele>60</ele>
        <time>2023-01-12T15:07:42Z</time>
      </trkpt>
      <trkpt lat="43.16996" lon="5.59406">
        <ele>60</ele>
        <time>2023-01-12T15:07:52Z</time>
      </trkpt>
      <trkpt lat="43.16953" lon="5.59366">
        <ele>60</ele>
        <time>2023-01-12T15:08:33Z</time>
      </trkpt>
      <trkpt lat="43.16947" lon="5.59355">
        <ele>61</ele>
        <time>2023-01-12T15:08:41Z</time>
      </trkpt>
      <trkpt lat="43.16934" lon="5.59342">
        <ele>61</ele>
        <time>2023-01-12T15:08:54Z</time>
      </trkpt>
      <trkpt lat="43.16884" lon="5.59302">
        <ele>62</ele>
        <time>2023-01-12T15:09:41Z</time>
      </trkpt>
      <trkpt lat="43.1687" lon="5.593">
        <ele>61</ele>
        <time>2023-01-12T15:09:52Z</time>
      </trkpt>
      <trkpt lat="43.16852" lon="5.593">
        <ele>61</ele>
        <time>2023-01-12T15:10:06Z</time>
      </trkpt>
      <trkpt lat="43.16792" lon="5.59307">
        <ele>69</ele>
        <time>2023-01-12T15:10:55Z</time>
      </trkpt>
      <trkpt lat="43.16751" lon="5.59311">
        <ele>78</ele>
        <time>2023-01-12T15:11:27Z</time>
      </trkpt>
      <trkpt lat="43.16721" lon="5.59309">
        <ele>74</ele>
        <time>2023-01-12T15:11:52Z</time>
      </trkpt>
      <trkpt lat="43.1671" lon="5.59304">
        <ele>72</ele>
        <time>2023-01-12T15:12:01Z</time>
      </trkpt>
      <trkpt lat="43.16677" lon="5.59248">
        <ele>76</ele>
        <time>2023-01-12T15:12:43Z</time>
      </trkpt>
      <trkpt lat="43.1671" lon="5.59304">
        <ele>72</ele>
        <time>2023-01-12T15:13:25Z</time>
      </trkpt>
      <trkpt lat="43.16721" lon="5.59309">
        <ele>74</ele>
        <time>2023-01-12T15:13:34Z</time>
      </trkpt>
      <trkpt lat="43.16751" lon="5.59311">
        <ele>78</ele>
        <time>2023-01-12T15:13:58Z</time>
      </trkpt>
      <trkpt lat="43.16792" lon="5.59307">
        <ele>69</ele>
        <time>2023-01-12T15:14:31Z</time>
      </trkpt>
      <trkpt lat="43.16852" lon="5.593">
        <ele>61</ele>
        <time>2023-01-12T15:15:19Z</time>
      </trkpt>
      <trkpt lat="43.1687" lon="5.593">
        <ele>61</ele>
        <time>2023-01-12T15:15:34Z</time>
      </trkpt>
      <trkpt lat="43.16884" lon="5.59302">
        <ele>62</ele>
        <time>2023-01-12T15:15:45Z</time>
      </trkpt>
      <trkpt lat="43.16934" lon="5.59342">
        <ele>61</ele>
        <time>2023-01-12T15:16:31Z</time>
      </trkpt>
      <trkpt lat="43.16947" lon="5.59355">
        <ele>61</ele>
        <time>2023-01-12T15:16:44Z</time>
      </trkpt>
      <trkpt lat="43.16953" lon="5.59366">
        <ele>60</ele>
        <time>2023-01-12T15:16:52Z</time>
      </trkpt>
      <trkpt lat="43.17006" lon="5.59416">
        <ele>60</ele>
        <time>2023-01-12T15:17:44Z</time>
      </trkpt>
      <trkpt lat="43.17019" lon="5.59381">
        <ele>63</ele>
        <time>2023-01-12T15:18:07Z</time>
      </trkpt>
      <trkpt lat="43.17076" lon="5.59214">
        <ele>81</ele>
        <time>2023-01-12T15:19:54Z</time>
      </trkpt>
      <trkpt lat="43.17079" lon="5.59199">
        <ele>82</ele>
        <time>2023-01-12T15:20:03Z</time>
      </trkpt>
      <trkpt lat="43.17082" lon="5.59146">
        <ele>88</ele>
        <time>2023-01-12T15:20:35Z</time>
      </trkpt>
      <trkpt lat="43.1708" lon="5.59123">
        <ele>92</ele>
        <time>2023-01-12T15:20:48Z</time>
      </trkpt>
      <trkpt lat="43.17073" lon="5.59085">
        <ele>97</ele>
        <time>2023-01-12T15:21:11Z</time>
      </trkpt>
      <trkpt lat="43.17074" lon="5.59032">
        <ele>95</ele>
        <time>2023-01-12T15:21:42Z</time>
      </trkpt>
      <trkpt lat="43.17076" lon="5.5902">
        <ele>95</ele>
        <time>2023-01-12T15:21:49Z</time>
      </trkpt>
      <trkpt lat="43.17084" lon="5.58997">
        <ele>95</ele>
        <time>2023-01-12T15:22:04Z</time>
      </trkpt>
      <trkpt lat="43.17115" lon="5.58951">
        <ele>101</ele>
        <time>2023-01-12T15:22:41Z</time>
      </trkpt>
      <trkpt lat="43.17117" lon="5.58936">
        <ele>101</ele>
        <time>2023-01-12T15:22:49Z</time>
      </trkpt>
      <trkpt lat="43.17117" lon="5.58878">
        <ele>103</ele>
        <time>2023-01-12T15:23:23Z</time>
      </trkpt>
      <trkpt lat="43.17121" lon="5.58841">
        <ele>106</ele>
        <time>2023-01-12T15:23:45Z</time>
      </trkpt>
      <trkpt lat="43.17126" lon="5.58822">
        <ele>106</ele>
        <time>2023-01-12T15:23:57Z</time>
      </trkpt>
      <trkpt lat="43.17134" lon="5.58803">
        <ele>106</ele>
        <time>2023-01-12T15:24:10Z</time>
      </trkpt>
      <trkpt lat="43.1718" lon="5.58731">
        <ele>111</ele>
        <time>2023-01-12T15:25:06Z</time>
      </trkpt>
      <trkpt lat="43.1719" lon="5.58721">
        <ele>112</ele>
        <time>2023-01-12T15:25:16Z</time>
      </trkpt>
      <trkpt lat="43.17217" lon="5.58706">
        <ele>118</ele>
        <time>2023-01-12T15:25:39Z</time>
      </trkpt>
      <trkpt lat="43.17227" lon="5.58697">
        <ele>120</ele>
        <time>2023-01-12T15:25:48Z</time>
      </trkpt>
      <trkpt lat="43.17232" lon="5.58683">
        <ele>120</ele>
        <time>2023-01-12T15:25:58Z</time>
      </trkpt>
      <trkpt lat="43.17232" lon="5.58665">
        <ele>118</ele>
        <time>2023-01-12T15:26:08Z</time>
      </trkpt>
      <trkpt lat="43.17222" lon="5.58641">
        <ele>116</ele>
        <time>2023-01-12T15:26:24Z</time>
      </trkpt>
      <trkpt lat="43.17218" lon="5.58628">
        <ele>115</ele>
        <time>2023-01-12T15:26:32Z</time>
      </trkpt>
      <trkpt lat="43.17217" lon="5.58616">
        <ele>116</ele>
        <time>2023-01-12T15:26:40Z</time>
      </trkpt>
      <trkpt lat="43.17221" lon="5.58597">
        <ele>118</ele>
        <time>2023-01-12T15:26:51Z</time>
      </trkpt>
      <trkpt lat="43.17239" lon="5.58555">
        <ele>122</ele>
        <time>2023-01-12T15:27:20Z</time>
      </trkpt>
      <trkpt lat="43.17261" lon="5.58522">
        <ele>125</ele>
        <time>2023-01-12T15:27:46Z</time>
      </trkpt>
      <trkpt lat="43.17289" lon="5.58491">
        <ele>130</ele>
        <time>2023-01-12T15:28:14Z</time>
      </trkpt>
      <trkpt lat="43.17318" lon="5.58465">
        <ele>135</ele>
        <time>2023-01-12T15:28:42Z</time>
      </trkpt>
      <trkpt lat="43.17369" lon="5.58432">
        <ele>143</ele>
        <time>2023-01-12T15:29:27Z</time>
      </trkpt>
      <trkpt lat="43.17384" lon="5.58428">
        <ele>147</ele>
        <time>2023-01-12T15:29:40Z</time>
      </trkpt>
      <trkpt lat="43.17389" lon="5.5842">
        <ele>147</ele>
        <time>2023-01-12T15:29:46Z</time>
      </trkpt>
      <trkpt lat="43.17389" lon="5.58409">
        <ele>147</ele>
        <time>2023-01-12T15:29:52Z</time>
      </trkpt>
      <trkpt lat="43.17382" lon="5.58401">
        <ele>146</ele>
        <time>2023-01-12T15:29:59Z</time>
      </trkpt>
      <trkpt lat="43.17372" lon="5.58395">
        <ele>144</ele>
        <time>2023-01-12T15:30:08Z</time>
      </trkpt>
      <trkpt lat="43.17361" lon="5.5838">
        <ele>142</ele>
        <time>2023-01-12T15:30:21Z</time>
      </trkpt>
      <trkpt lat="43.1736" lon="5.58373">
        <ele>142</ele>
        <time>2023-01-12T15:30:25Z</time>
      </trkpt>
      <trkpt lat="43.17353" lon="5.58353">
        <ele>141</ele>
        <time>2023-01-12T15:30:38Z</time>
      </trkpt>
      <trkpt lat="43.17354" lon="5.58338">
        <ele>143</ele>
        <time>2023-01-12T15:30:47Z</time>
      </trkpt>
      <trkpt lat="43.17367" lon="5.58306">
        <ele>146</ele>
        <time>2023-01-12T15:31:08Z</time>
      </trkpt>
      <trkpt lat="43.17396" lon="5.58266">
        <ele>157</ele>
        <time>2023-01-12T15:31:41Z</time>
      </trkpt>
      <trkpt lat="43.17403" lon="5.58258">
        <ele>160</ele>
        <time>2023-01-12T15:31:48Z</time>
      </trkpt>
      <trkpt lat="43.17412" lon="5.58245">
        <ele>163</ele>
        <time>2023-01-12T15:31:59Z</time>
      </trkpt>
      <trkpt lat="43.17425" lon="5.58215">
        <ele>163</ele>
        <time>2023-01-12T15:32:19Z</time>
      </trkpt>
      <trkpt lat="43.17435" lon="5.58201">
        <ele>164</ele>
        <time>2023-01-12T15:32:30Z</time>
      </trkpt>
      <trkpt lat="43.17468" lon="5.58168">
        <ele>170</ele>
        <time>2023-01-12T15:33:03Z</time>
      </trkpt>
      <trkpt lat="43.1751" lon="5.58142">
        <ele>180</ele>
        <time>2023-01-12T15:33:40Z</time>
      </trkpt>
      <trkpt lat="43.17517" lon="5.58131">
        <ele>181</ele>
        <time>2023-01-12T15:33:49Z</time>
      </trkpt>
      <trkpt lat="43.17522" lon="5.58119">
        <ele>180</ele>
        <time>2023-01-12T15:33:57Z</time>
      </trkpt>
      <trkpt lat="43.17533" lon="5.58099">
        <ele>180</ele>
        <time>2023-01-12T15:34:11Z</time>
      </trkpt>
      <trkpt lat="43.17542" lon="5.58089">
        <ele>182</ele>
        <time>2023-01-12T15:34:21Z</time>
      </trkpt>
      <trkpt lat="43.17563" lon="5.58081">
        <ele>188</ele>
        <time>2023-01-12T15:34:38Z</time>
      </trkpt>
      <trkpt lat="43.17567" lon="5.58074">
        <ele>190</ele>
        <time>2023-01-12T15:34:43Z</time>
      </trkpt>
      <trkpt lat="43.17567" lon="5.58068">
        <ele>191</ele>
        <time>2023-01-12T15:34:47Z</time>
      </trkpt>
      <trkpt lat="43.17567" lon="5.58062">
        <ele>191</ele>
        <time>2023-01-12T15:34:50Z</time>
      </trkpt>
      <trkpt lat="43.17563" lon="5.58055">
        <ele>191</ele>
        <time>2023-01-12T15:34:55Z</time>
      </trkpt>
      <trkpt lat="43.17542" lon="5.58033">
        <ele>187</ele>
        <time>2023-01-12T15:35:17Z</time>
      </trkpt>
      <trkpt lat="43.17521" lon="5.58">
        <ele>185</ele>
        <time>2023-01-12T15:35:42Z</time>
      </trkpt>
      <trkpt lat="43.17517" lon="5.57983">
        <ele>185</ele>
        <time>2023-01-12T15:35:53Z</time>
      </trkpt>
      <trkpt lat="43.17518" lon="5.57951">
        <ele>187</ele>
        <time>2023-01-12T15:36:11Z</time>
      </trkpt>
      <trkpt lat="43.17525" lon="5.57908">
        <ele>193</ele>
        <time>2023-01-12T15:36:37Z</time>
      </trkpt>
      <trkpt lat="43.17533" lon="5.57895">
        <ele>197</ele>
        <time>2023-01-12T15:36:47Z</time>
      </trkpt>
      <trkpt lat="43.17553" lon="5.57874">
        <ele>206</ele>
        <time>2023-01-12T15:37:07Z</time>
      </trkpt>
      <trkpt lat="43.17564" lon="5.57854">
        <ele>210</ele>
        <time>2023-01-12T15:37:22Z</time>
      </trkpt>
      <trkpt lat="43.1759" lon="5.57829">
        <ele>219</ele>
        <time>2023-01-12T15:37:47Z</time>
      </trkpt>
      <trkpt lat="43.17593" lon="5.57819">
        <ele>219</ele>
        <time>2023-01-12T15:37:53Z</time>
      </trkpt>
      <trkpt lat="43.17592" lon="5.57806">
        <ele>217</ele>
        <time>2023-01-12T15:38:01Z</time>
      </trkpt>
      <trkpt lat="43.17593" lon="5.57798">
        <ele>217</ele>
        <time>2023-01-12T15:38:06Z</time>
      </trkpt>
      <trkpt lat="43.17602" lon="5.57789">
        <ele>219</ele>
        <time>2023-01-12T15:38:15Z</time>
      </trkpt>
      <trkpt lat="43.17618" lon="5.57762">
        <ele>220</ele>
        <time>2023-01-12T15:38:35Z</time>
      </trkpt>
      <trkpt lat="43.1763" lon="5.57753">
        <ele>223</ele>
        <time>2023-01-12T15:38:46Z</time>
      </trkpt>
      <trkpt lat="43.17643" lon="5.57748">
        <ele>226</ele>
        <time>2023-01-12T15:38:57Z</time>
      </trkpt>
      <trkpt lat="43.17666" lon="5.57727">
        <ele>233</ele>
        <time>2023-01-12T15:39:19Z</time>
      </trkpt>
      <trkpt lat="43.17687" lon="5.57699">
        <ele>239</ele>
        <time>2023-01-12T15:39:42Z</time>
      </trkpt>
      <trkpt lat="43.17697" lon="5.57692">
        <ele>241</ele>
        <time>2023-01-12T15:39:51Z</time>
      </trkpt>
      <trkpt lat="43.17704" lon="5.57682">
        <ele>243</ele>
        <time>2023-01-12T15:39:59Z</time>
      </trkpt>
      <trkpt lat="43.17708" lon="5.57659">
        <ele>244</ele>
        <time>2023-01-12T15:40:13Z</time>
      </trkpt>
      <trkpt lat="43.17718" lon="5.57639">
        <ele>249</ele>
        <time>2023-01-12T15:40:27Z</time>
      </trkpt>
      <trkpt lat="43.17733" lon="5.57621">
        <ele>253</ele>
        <time>2023-01-12T15:40:43Z</time>
      </trkpt>
      <trkpt lat="43.17575" lon="5.57556">
        <ele>267</ele>
        <time>2023-01-12T15:42:55Z</time>
      </trkpt>
      <trkpt lat="43.1756" lon="5.57547">
        <ele>272</ele>
        <time>2023-01-12T15:43:09Z</time>
      </trkpt>
      <trkpt lat="43.1755" lon="5.57548">
        <ele>273</ele>
        <time>2023-01-12T15:43:17Z</time>
      </trkpt>
      <trkpt lat="43.1754" lon="5.57554">
        <ele>273</ele>
        <time>2023-01-12T15:43:25Z</time>
      </trkpt>
      <trkpt lat="43.17534" lon="5.57551">
        <ele>275</ele>
        <time>2023-01-12T15:43:30Z</time>
      </trkpt>
      <trkpt lat="43.17524" lon="5.57552">
        <ele>276</ele>
        <time>2023-01-12T15:43:38Z</time>
      </trkpt>
      <trkpt lat="43.17505" lon="5.57549">
        <ele>279</ele>
        <time>2023-01-12T15:43:54Z</time>
      </trkpt>
      <trkpt lat="43.17497" lon="5.57554">
        <ele>278</ele>
        <time>2023-01-12T15:44:01Z</time>
      </trkpt>
      <trkpt lat="43.17486" lon="5.57554">
        <ele>276</ele>
        <time>2023-01-12T15:44:10Z</time>
      </trkpt>
      <trkpt lat="43.17466" lon="5.57558">
        <ele>271</ele>
        <time>2023-01-12T15:44:26Z</time>
      </trkpt>
      <trkpt lat="43.1746" lon="5.57562">
        <ele>269</ele>
        <time>2023-01-12T15:44:31Z</time>
      </trkpt>
      <trkpt lat="43.17436" lon="5.57562">
        <ele>265</ele>
        <time>2023-01-12T15:44:50Z</time>
      </trkpt>
      <trkpt lat="43.17424" lon="5.57549">
        <ele>263</ele>
        <time>2023-01-12T15:45:03Z</time>
      </trkpt>
      <trkpt lat="43.17422" lon="5.57538">
        <ele>262</ele>
        <time>2023-01-12T15:45:09Z</time>
      </trkpt>
      <trkpt lat="43.17426" lon="5.57519">
        <ele>264</ele>
        <time>2023-01-12T15:45:21Z</time>
      </trkpt>
      <trkpt lat="43.17434" lon="5.57504">
        <ele>267</ele>
        <time>2023-01-12T15:45:32Z</time>
      </trkpt>
      <trkpt lat="43.17441" lon="5.57495">
        <ele>268</ele>
        <time>2023-01-12T15:45:39Z</time>
      </trkpt>
      <trkpt lat="43.17444" lon="5.57484">
        <ele>265</ele>
        <time>2023-01-12T15:45:46Z</time>
      </trkpt>
      <trkpt lat="43.17449" lon="5.57472">
        <ele>264</ele>
        <time>2023-01-12T15:45:54Z</time>
      </trkpt>
      <trkpt lat="43.17454" lon="5.57466">
        <ele>265</ele>
        <time>2023-01-12T15:46:00Z</time>
      </trkpt>
      <trkpt lat="43.17461" lon="5.5746">
        <ele>268</ele>
        <time>2023-01-12T15:46:06Z</time>
      </trkpt>
      <trkpt lat="43.17471" lon="5.57459">
        <ele>276</ele>
        <time>2023-01-12T15:46:14Z</time>
      </trkpt>
      <trkpt lat="43.1748" lon="5.5746">
        <ele>283</ele>
        <time>2023-01-12T15:46:21Z</time>
      </trkpt>
      <trkpt lat="43.17486" lon="5.57457">
        <ele>287</ele>
        <time>2023-01-12T15:46:27Z</time>
      </trkpt>
      <trkpt lat="43.1749" lon="5.57455">
        <ele>290</ele>
        <time>2023-01-12T15:46:30Z</time>
      </trkpt>
      <trkpt lat="43.17517" lon="5.57443">
        <ele>300</ele>
        <time>2023-01-12T15:46:53Z</time>
      </trkpt>
      <trkpt lat="43.17527" lon="5.57436">
        <ele>301</ele>
        <time>2023-01-12T15:47:02Z</time>
      </trkpt>
      <trkpt lat="43.1753" lon="5.5743">
        <ele>302</ele>
        <time>2023-01-12T15:47:06Z</time>
      </trkpt>
      <trkpt lat="43.17535" lon="5.57409">
        <ele>299</ele>
        <time>2023-01-12T15:47:19Z</time>
      </trkpt>
      <trkpt lat="43.17537" lon="5.57407">
        <ele>298</ele>
        <time>2023-01-12T15:47:21Z</time>
      </trkpt>
      <trkpt lat="43.17536" lon="5.57401">
        <ele>294</ele>
        <time>2023-01-12T15:47:24Z</time>
      </trkpt>
      <trkpt lat="43.17564" lon="5.57391">
        <ele>299</ele>
        <time>2023-01-12T15:47:48Z</time>
      </trkpt>
      <trkpt lat="43.17691" lon="5.57326">
        <ele>313</ele>
        <time>2023-01-12T15:49:36Z</time>
      </trkpt>
      <trkpt lat="43.17701" lon="5.57317">
        <ele>314</ele>
        <time>2023-01-12T15:49:46Z</time>
      </trkpt>
      <trkpt lat="43.17721" lon="5.57303">
        <ele>315</ele>
        <time>2023-01-12T15:50:04Z</time>
      </trkpt>
      <trkpt lat="43.17736" lon="5.57284">
        <ele>316</ele>
        <time>2023-01-12T15:50:20Z</time>
      </trkpt>
      <trkpt lat="43.17739" lon="5.57281">
        <ele>317</ele>
        <time>2023-01-12T15:50:23Z</time>
      </trkpt>
      <trkpt lat="43.17755" lon="5.5727">
        <ele>319</ele>
        <time>2023-01-12T15:50:37Z</time>
      </trkpt>
      <trkpt lat="43.17771" lon="5.57268">
        <ele>319</ele>
        <time>2023-01-12T15:50:50Z</time>
      </trkpt>
      <trkpt lat="43.17786" lon="5.5727">
        <ele>319</ele>
        <time>2023-01-12T15:51:02Z</time>
      </trkpt>
      <trkpt lat="43.17803" lon="5.57282">
        <ele>321</ele>
        <time>2023-01-12T15:51:18Z</time>
      </trkpt>
      <trkpt lat="43.17818" lon="5.57308">
        <ele>323</ele>
        <time>2023-01-12T15:51:37Z</time>
      </trkpt>
      <trkpt lat="43.17844" lon="5.57337">
        <ele>326</ele>
        <time>2023-01-12T15:52:04Z</time>
      </trkpt>
      <trkpt lat="43.17858" lon="5.57359">
        <ele>325</ele>
        <time>2023-01-12T15:52:21Z</time>
      </trkpt>
      <trkpt lat="43.17886" lon="5.57391">
        <ele>325</ele>
        <time>2023-01-12T15:52:50Z</time>
      </trkpt>
      <trkpt lat="43.17891" lon="5.57403">
        <ele>325</ele>
        <time>2023-01-12T15:52:58Z</time>
      </trkpt>
      <trkpt lat="43.17903" lon="5.57465">
        <ele>319</ele>
        <time>2023-01-12T15:53:35Z</time>
      </trkpt>
      <trkpt lat="43.1791" lon="5.57518">
        <ele>315</ele>
        <time>2023-01-12T15:54:07Z</time>
      </trkpt>
      <trkpt lat="43.17915" lon="5.57533">
        <ele>315</ele>
        <time>2023-01-12T15:54:17Z</time>
      </trkpt>
      <trkpt lat="43.17925" lon="5.57597">
        <ele>311</ele>
        <time>2023-01-12T15:54:55Z</time>
      </trkpt>
      <trkpt lat="43.17937" lon="5.5762">
        <ele>310</ele>
        <time>2023-01-12T15:55:11Z</time>
      </trkpt>
      <trkpt lat="43.17938" lon="5.57632">
        <ele>311</ele>
        <time>2023-01-12T15:55:18Z</time>
      </trkpt>
      <trkpt lat="43.17939" lon="5.5764">
        <ele>311</ele>
        <time>2023-01-12T15:55:23Z</time>
      </trkpt>
      <trkpt lat="43.17932" lon="5.57657">
        <ele>313</ele>
        <time>2023-01-12T15:55:34Z</time>
      </trkpt>
      <trkpt lat="43.17924" lon="5.57668">
        <ele>314</ele>
        <time>2023-01-12T15:55:44Z</time>
      </trkpt>
      <trkpt lat="43.17912" lon="5.5771">
        <ele>313</ele>
        <time>2023-01-12T15:56:10Z</time>
      </trkpt>
      <trkpt lat="43.17898" lon="5.57728">
        <ele>309</ele>
        <time>2023-01-12T15:56:25Z</time>
      </trkpt>
      <trkpt lat="43.17863" lon="5.578">
        <ele>299</ele>
        <time>2023-01-12T15:57:16Z</time>
      </trkpt>
      <trkpt lat="43.17843" lon="5.57813">
        <ele>296</ele>
        <time>2023-01-12T15:57:33Z</time>
      </trkpt>
      <trkpt lat="43.17836" lon="5.57831">
        <ele>295</ele>
        <time>2023-01-12T15:57:45Z</time>
      </trkpt>
      <trkpt lat="43.17833" lon="5.57861">
        <ele>292</ele>
        <time>2023-01-12T15:58:03Z</time>
      </trkpt>
      <trkpt lat="43.17834" lon="5.57908">
        <ele>286</ele>
        <time>2023-01-12T15:58:31Z</time>
      </trkpt>
      <trkpt lat="43.17829" lon="5.57951">
        <ele>280</ele>
        <time>2023-01-12T15:58:56Z</time>
      </trkpt>
      <trkpt lat="43.17787" lon="5.58053">
        <ele>260</ele>
        <time>2023-01-12T16:00:04Z</time>
      </trkpt>
      <trkpt lat="43.17772" lon="5.58088">
        <ele>258</ele>
        <time>2023-01-12T16:00:28Z</time>
      </trkpt>
      <trkpt lat="43.17745" lon="5.58162">
        <ele>257</ele>
        <time>2023-01-12T16:01:16Z</time>
      </trkpt>
      <trkpt lat="43.17708" lon="5.58233">
        <ele>248</ele>
        <time>2023-01-12T16:02:07Z</time>
      </trkpt>
      <trkpt lat="43.17693" lon="5.58269">
        <ele>246</ele>
        <time>2023-01-12T16:02:32Z</time>
      </trkpt>
      <trkpt lat="43.17681" lon="5.58319">
        <ele>241</ele>
        <time>2023-01-12T16:03:02Z</time>
      </trkpt>
      <trkpt lat="43.17663" lon="5.58415">
        <ele>234</ele>
        <time>2023-01-12T16:04:00Z</time>
      </trkpt>
      <trkpt lat="43.17652" lon="5.58435">
        <ele>229</ele>
        <time>2023-01-12T16:04:15Z</time>
      </trkpt>
      <trkpt lat="43.17615" lon="5.58522">
        <ele>220</ele>
        <time>2023-01-12T16:05:14Z</time>
      </trkpt>
      <trkpt lat="43.176" lon="5.58543">
        <ele>219</ele>
        <time>2023-01-12T16:05:31Z</time>
      </trkpt>
      <trkpt lat="43.17581" lon="5.58575">
        <ele>219</ele>
        <time>2023-01-12T16:05:55Z</time>
      </trkpt>
      <trkpt lat="43.17563" lon="5.58613">
        <ele>214</ele>
        <time>2023-01-12T16:06:21Z</time>
      </trkpt>
      <trkpt lat="43.17546" lon="5.58655">
        <ele>211</ele>
        <time>2023-01-12T16:06:49Z</time>
      </trkpt>
      <trkpt lat="43.17495" lon="5.5874">
        <ele>202</ele>
        <time>2023-01-12T16:07:54Z</time>
      </trkpt>
      <trkpt lat="43.17489" lon="5.58785">
        <ele>196</ele>
        <time>2023-01-12T16:08:20Z</time>
      </trkpt>
      <trkpt lat="43.17468" lon="5.58836">
        <ele>188</ele>
        <time>2023-01-12T16:08:55Z</time>
      </trkpt>
      <trkpt lat="43.17457" lon="5.58873">
        <ele>182</ele>
        <time>2023-01-12T16:09:18Z</time>
      </trkpt>
      <trkpt lat="43.17452" lon="5.58908">
        <ele>177</ele>
        <time>2023-01-12T16:09:39Z</time>
      </trkpt>
      <trkpt lat="43.17454" lon="5.58927">
        <ele>175</ele>
        <time>2023-01-12T16:09:50Z</time>
      </trkpt>
      <trkpt lat="43.17451" lon="5.58975">
        <ele>169</ele>
        <time>2023-01-12T16:10:18Z</time>
      </trkpt>
      <trkpt lat="43.17445" lon="5.59019">
        <ele>164</ele>
        <time>2023-01-12T16:10:44Z</time>
      </trkpt>
      <trkpt lat="43.17437" lon="5.59054">
        <ele>159</ele>
        <time>2023-01-12T16:11:06Z</time>
      </trkpt>
      <trkpt lat="43.17435" lon="5.5908">
        <ele>156</ele>
        <time>2023-01-12T16:11:21Z</time>
      </trkpt>
      <trkpt lat="43.17436" lon="5.59104">
        <ele>153</ele>
        <time>2023-01-12T16:11:35Z</time>
      </trkpt>
      <trkpt lat="43.17416" lon="5.59108">
        <ele>152</ele>
        <time>2023-01-12T16:11:51Z</time>
      </trkpt>
      <trkpt lat="43.1741" lon="5.59111">
        <ele>150</ele>
        <time>2023-01-12T16:11:56Z</time>
      </trkpt>
      <trkpt lat="43.17396" lon="5.59234">
        <ele>134</ele>
        <time>2023-01-12T16:13:09Z</time>
      </trkpt>
      <trkpt lat="43.17393" lon="5.59294">
        <ele>127</ele>
        <time>2023-01-12T16:13:44Z</time>
      </trkpt>
      <trkpt lat="43.17413" lon="5.59496">
        <ele>100</ele>
        <time>2023-01-12T16:15:43Z</time>
      </trkpt>
      <trkpt lat="43.17419" lon="5.59526">
        <ele>96</ele>
        <time>2023-01-12T16:16:01Z</time>
      </trkpt>
      <trkpt lat="43.17438" lon="5.5966">
        <ele>74</ele>
        <time>2023-01-12T16:17:21Z</time>
      </trkpt>
      <trkpt lat="43.17456" lon="5.59728">
        <ele>64</ele>
        <time>2023-01-12T16:18:03Z</time>
      </trkpt>
      <trkpt lat="43.17477" lon="5.59794">
        <ele>55</ele>
        <time>2023-01-12T16:18:45Z</time>
      </trkpt>
      <trkpt lat="43.17478" lon="5.598">
        <ele>54</ele>
        <time>2023-01-12T16:18:49Z</time>
      </trkpt>
      <trkpt lat="43.17479" lon="5.59804">
        <ele>54</ele>
        <time>2023-01-12T16:18:51Z</time>
      </trkpt>
      <trkpt lat="43.17481" lon="5.59804">
        <ele>54</ele>
        <time>2023-01-12T16:18:53Z</time>
      </trkpt>
      <trkpt lat="43.1751" lon="5.59906">
        <ele>39</ele>
        <time>2023-01-12T16:19:57Z</time>
      </trkpt>
      <trkpt lat="43.17523" lon="5.59908">
        <ele>38</ele>
        <time>2023-01-12T16:20:07Z</time>
      </trkpt>
      <trkpt lat="43.17527" lon="5.59913">
        <ele>37</ele>
        <time>2023-01-12T16:20:12Z</time>
      </trkpt>
      <trkpt lat="43.17542" lon="5.59965">
        <ele>30</ele>
        <time>2023-01-12T16:20:44Z</time>
      </trkpt>
      <trkpt lat="43.17541" lon="5.59973">
        <ele>29</ele>
        <time>2023-01-12T16:20:49Z</time>
      </trkpt>
      <trkpt lat="43.17552" lon="5.59982">
        <ele>28</ele>
        <time>2023-01-12T16:20:59Z</time>
      </trkpt>
      <trkpt lat="43.17561" lon="5.59993">
        <ele>26</ele>
        <time>2023-01-12T16:21:09Z</time>
      </trkpt>
      <trkpt lat="43.1757" lon="5.60006">
        <ele>24</ele>
        <time>2023-01-12T16:21:19Z</time>
      </trkpt>
      <trkpt lat="43.17576" lon="5.60522">
        <ele>11</ele>
        <time>2023-01-12T16:26:21Z</time>
      </trkpt>
      <trkpt lat="43.17576" lon="5.60519">
        <ele>11</ele>
        <time>2023-01-12T16:26:22Z</time>
      </trkpt>
      <trkpt lat="43.17532" lon="5.60485">
        <ele>12</ele>
        <time>2023-01-12T16:27:03Z</time>
      </trkpt>
      <trkpt lat="43.17516" lon="5.60523">
        <ele>12</ele>
        <time>2023-01-12T16:27:28Z</time>
      </trkpt>
      <trkpt lat="43.17519" lon="5.60528">
        <ele>12</ele>
        <time>2023-01-12T16:27:32Z</time>
      </trkpt>
      <trkpt lat="43.17469" lon="5.60538">
        <ele>11</ele>
        <time>2023-01-12T16:28:13Z</time>
      </trkpt>
      <trkpt lat="43.17469" lon="5.60545">
        <ele>11</ele>
        <time>2023-01-12T16:28:17Z</time>
      </trkpt>
      <trkpt lat="43.17411" lon="5.60632">
        <ele>5</ele>
        <time>2023-01-12T16:29:26Z</time>
      </trkpt>
      <trkpt lat="43.1739" lon="5.60608">
        <ele>6</ele>
        <time>2023-01-12T16:29:48Z</time>
      </trkpt>
      <trkpt lat="43.17375" lon="5.606">
        <ele>6</ele>
        <time>2023-01-12T16:30:00Z</time>
      </trkpt>
      <trkpt lat="43.17371" lon="5.60597">
        <ele>6</ele>
        <time>2023-01-12T16:30:04Z</time>
      </trkpt>
      <trkpt lat="43.17368" lon="5.60588">
        <ele>6</ele>
        <time>2023-01-12T16:30:10Z</time>
      </trkpt>
      <trkpt lat="43.17353" lon="5.60591">
        <ele>5</ele>
        <time>2023-01-12T16:30:22Z</time>
      </trkpt>
      <trkpt lat="43.17315" lon="5.6058">
        <ele>4</ele>
        <time>2023-01-12T16:30:53Z</time>
      </trkpt>
      <trkpt lat="43.17263" lon="5.60576">
        <ele>3</ele>
        <time>2023-01-12T16:31:35Z</time>
      </trkpt>
      <trkpt lat="43.17251" lon="5.60576">
        <ele>2</ele>
        <time>2023-01-12T16:31:44Z</time>
      </trkpt>
      <trkpt lat="43.1722" lon="5.60588">
        <ele>4</ele>
        <time>2023-01-12T16:32:10Z</time>
      </trkpt>
      <trkpt lat="43.1717" lon="5.60595">
        <ele>3.4</ele>
        <time>2023-01-12T16:32:19Z</time>
      </trkpt>
    </trkseg>
  </trk>
</gpx>